Погода в Сокото

Нигерия     13°01′51″N   5°14′24″E
темп.,
°C
ветер,
м/с
пор.,
м/с
влажн.,
%
обл.,
%
осадки,
мм/ч
давл.,
гПа
погр.,
м
24 июля, сб
сб2401:00+25юз5882100 0.0 1013415
04:00+24юз578684 0.0 1012438
07:00+24юз478633 0.0 1013470
10:00+28зюз676659 0.1 10141072
13:00+30зюз885886 0.2 10121446
16:00+30зюз765187 0.1 10101687
19:00+29юз345466 0.2 1011227
22:00+28ююз356026 0.1 1012159
25 июля, вс
вс2501:00+27ююз596766 0.9 1012346
04:00+26юз5107099 0.0 1011440
07:00+25юз597598 0.0 1012521
10:00+29юз675714 0.0 10141132
13:00+32юз654796 0.0 10111830
16:00+31юз665058 0.2 10091394
19:00+31зюз465163 0.2 1010342
22:00+28юз486189 0.6 1012350
26 июля, пн
пн2601:00+27ююз596671 0.8 1012467
04:00+26юз597395 0.0 1011520
07:00+25юз51076100 0.5 1012572
10:00+30зюз675653 0.1 10131120
13:00+33зюз5544100 0.1 10111889
16:00+33юз554586 0.3 10091661
19:00+31ююз3652100 0.8 1009282
22:00+28юз2567100 1.9 1011188
27 июля, вт
вт2701:00+25ю5881100 3.0 1011306
04:00+25ююз61181100 1.0 1010492
07:00+24ююз6108684 1.6 1012487
10:00+28юз786596 1.3 10131045
13:00+30зюз775676 1.3 10111445
16:00+32ююз555279 0.0 10091571
19:00+27ю7971100 0.2 1009466
22:00+24ю71088100 3.4 1012418
28 июля, ср
ср2801:00+23ююз5789100 4.8 1013429
04:00+23ююз4686100 1.4 1012645
07:00+23юз4688100 3.8 1013402
10:00+26ююз777394 0.3 1013728
13:00+29ююз656096 0.3 10121379
16:00+29юз5560100 0.1 10111237
19:00+26ю577442 0.6 1012591
22:00+25ю578068 0.1 1014485